Lid_Strength_Index
-1 -1 -1 -1 -1 -0 -0 -0 0 -1 -1 -1 -0 -0 0 0 0 -0 -0 -0 -0 -0 -1 -1 -1 -1 2 6 6 2 0 1 3 4 5 6 7 7 8 7 7 8 8 8 7 7 7
-1 -1 -1 -1 -1 -1 -1 -0 1 1 -1 -1 -1 -0 0 0 0 -0 -0 -0 -0 -0 -0 -1 -1 -1 4 8 3 3 4 4 4 4 5 6 6 6 7 8 8 7 8 8 7 7 7
-0 -1 -0 -1 -1 -1 -0 -0 -0 0 -0 -1 -0 -0 0 0 -0 -0 -0 -0 -0 -0 -0 -1 -1 2 6 7 2 3 4 4 4 4 5 5 5 6 6 7 7 8 8 8 8 7 8
1 -0 0 0 0 0 -1 -1 -1 -0 0 1 0 0 -0 -0 -0 0 -0 -0 -0 -0 -0 -1 -1 3 8 3 1 3 4 4 4 4 5 5 4 6 6 7 7 8 8 10 8 8 8
1 2 1 1 1 1 1 -0 -1 -1 -1 -0 1 1 2 -0 -0 -0 -0 -0 -0 -0 -1 -1 3 5 9 2 3 2 4 5 5 5 5 6 5 7 7 8 9 9 11 10 9 8 9
-0 0 1 2 2 1 2 1 1 1 1 0 0 1 1 1 0 -0 -0 -1 -1 -0 1 3 4 8 7 7 4 4 4 5 6 6 6 6 7 8 8 9 12 11 11 11 10 9 10
1 1 0 1 3 3 2 2 2 2 2 2 1 0 1 1 1 1 1 4 4 4 4 7 8 9 7 5 4 4 4 5 6 6 8 9 9 10 8 8 10 10 11 11 10 10 10
2 2 1 1 2 2 3 2 2 2 2 2 2 2 1 1 1 1 2 3 6 5 7 5 6 7 5 4 7 5 4 6 7 9 9 9 11 8 9 9 10 10 10 10 9 10 10
2 3 2 2 2 2 2 3 2 3 2 3 3 3 1 1 1 2 3 4 3 4 7 7 6 6 6 5 7 6 5 7 8 10 9 10 9 9 9 11 11 10 11 11 11 11 10
1 3 3 2 3 2 2 3 2 3 3 3 3 3 1 1 2 3 3 2 2 4 10 9 9 7 7 6 8 6 5 6 8 9 9 10 9 10 10 11 10 12 10 10 11 11 13
2 2 2 1 2 3 3 3 3 2 2 2 3 3 3 2 3 4 3 2 2 4 19 9 10 6 7 7 8 8 6 6 9 9 9 10 10 10 11 10 9 11 10 10 11 11 12
2 2 2 2 2 2 2 3 3 2 2 2 2 3 3 2 2 2 1 2 3 13 19 10 9 10 10 9 10 8 8 6 7 9 10 10 9 9 9 10 9 10 10 10 11 11 15
2 2 2 2 1 1 1 1 3 3 3 3 2 1 2 2 3 1 2 3 13 18 10 11 11 10 11 11 11 10 10 10 11 12 12 11 11 10 9 10 10 10 10 14 15 16 16
1 2 2 2 2 2 1 1 1 2 3 3 3 2 2 2 1 1 2 9 17 13 12 10 10 11 12 11 11 11 11 12 10 11 12 13 14 11 9 9 10 10 10 13 18 17 15
1 1 2 1 2 2 2 0 0 0 1 2 2 3 3 2 2 1 6 14 13 11 9 10 10 11 11 11 11 12 11 11 10 11 13 14 14 11 10 9 8 11 13 10 13 17 15
0 1 1 1 2 2 2 1 0 -0 -0 1 3 4 4 1 -0 2 9 12 10 8 8 9 12 10 12 11 11 12 12 11 11 9 8 12 15 12 11 9 10 10 9 13 13 18 18
1 1 1 1 1 2 2 1 1 0 -0 1 3 7 4 1 -0 6 12 11 9 7 7 9 10 11 11 12 10 11 11 10 10 10 9 10 12 14 12 13 12 12 12 12 12 13 16
1 1 1 1 1 1 2 1 1 0 -0 2 4 10 3 0 8 7 10 9 7 7 6 8 8 9 11 10 11 11 12 9 8 9 11 9 11 14 13 11 11 11 11 11 14 15 14
1 1 0 0 1 1 2 1 1 1 0 3 7 7 3 2 11 10 8 8 7 8 8 9 9 8 8 10 13 11 10 7 8 9 10 9 12 17 14 13 12 13 12 12 11 13 15
1 1 0 1 1 1 1 1 1 1 0 2 7 10 7 6 5 8 9 9 10 6 7 7 8 8 10 11 10 12 11 8 7 8 8 8 11 14 16 13 11 14 12 11 12 14 14
1 1 1 0 0 0 0 1 1 1 0 2 7 9 8 11 9 8 8 9 10 10 7 7 8 9 10 12 12 12 10 10 8 8 7 9 15 12 12 11 11 12 12 12 12 12 13
1 1 1 1 0 0 1 0 1 0 -0 4 8 8 8 9 9 9 9 10 10 9 9 9 10 8 9 11 10 11 10 10 11 9 11 9 14 13 15 12 12 13 11 12 11 11 11
1 1 1 1 0 0 -0 -0 -0 -0 -0 4 5 5 7 8 9 10 10 10 10 8 7 7 7 9 10 8 7 7 7 8 10 11 11 11 13 14 17 13 13 17 14 12 11 10 10
1 1 1 0 0 -0 -0 -0 -0 -1 -0 2 4 5 9 11 9 10 9 9 10 9 9 8 7 8 7 5 5 6 6 7 8 10 9 12 13 13 16 15 20 13 8 9 10 10 9
2 1 0 0 -0 -1 -1 -1 -1 -1 -1 2 2 5 7 10 9 9 9 9 9 8 9 9 8 6 5 7 9 12 12 12 11 9 8 8 11 15 17 17 14 12 10 11 12 12 8
2 1 1 -0 -1 -1 -1 -1 -1 -1 -1 1 2 2 6 9 10 8 9 9 10 10 10 11 8 7 6 8 11 16 16 14 13 12 9 9 9 13 15 18 19 12 9 8 8 15 8
2 1 1 0 -1 -1 -1 -1 -1 -1 -1 1 2 1 4 8 8 8 10 10 8 9 10 11 10 9 7 10 13 14 15 12 14 14 14 13 13 15 15 17 14 9 9 8 16 13 10
2 1 1 -0 0 -1 -1 -1 -2 -2 -2 0 3 1 4 7 7 6 6 8 8 8 10 10 9 9 10 12 12 12 13 12 13 12 13 13 14 15 15 17 18 9 9 12 10 9 10
2 2 1 0 0 -1 -1 -1 -1 -1 -1 -1 4 1 1 5 7 5 5 5 5 5 7 9 8 10 7 10 10 11 12 11 12 15 10 13 11 12 12 12 8 7 8 7 8 10 9